[Iaude] MPEC U85: 2016 UQ36 [a=1.77,e=0.50,i=4.7,H=27.6]

mpec at si.edu mpec at si.edu
Thu Oct 27 10:33:55 EDT 2016


M.P.E.C. 2016-U85                                Issued 2016 Oct. 27, 14:29 UT
 
     The Minor Planet Electronic Circulars contain information on unusual
         minor planets and routine data on comets.  They are published
    on behalf of Division F of the International Astronomical Union by the
          Minor Planet Center, Smithsonian Astrophysical Observatory,
                          Cambridge, MA 02138, U.S.A.

             Prepared using the Tamkin Foundation Computer Network

                              MPC at CFA.HARVARD.EDU
            URL http://www.minorplanetcenter.net/    ISSN 1523-6714


                                   2016 UQ36
 
Observations:
     K16U36Q* C2016 10 26.40476 02 47 45.99 +00 56 22.8          18.3 VqEU085G96
     K16U36Q  C2016 10 26.40904 02 47 54.62 +00 57 07.5          18.1 VqEU085G96
     K16U36Q  C2016 10 26.41332 02 48 03.13 +00 57 52.4          18.3 VqEU085G96
     K16U36Q  C2016 10 26.41761 02 48 11.64 +00 58 36.6          18.4 VqEU085G96
     K16U36Q  C2016 10 26.45260 02 49 20.31 +01 04 30.3          18.5 VqEU085I52
     K16U36Q  C2016 10 26.45302 02 49 21.09 +01 04 33.8          18.5 VqEU085I52
     K16U36Q  C2016 10 26.45343 02 49 21.91 +01 04 38.1          18.7 VqEU085I52
     K16U36Q  C2016 10 26.45385 02 49 22.70 +01 04 42.1          18.6 VqEU085I52
     K16U36Q  C2016 10 26.47960 02 50 12.30 +01 08 51.5          18.8 VqEU085G96
     K16U36Q  C2016 10 26.47984 02 50 12.79 +01 08 54.2          18.7 VqEU085G96
     K16U36Q  C2016 10 26.48011 02 50 13.28 +01 08 56.6          18.6 VqEU085G96
     K16U36Q  C2016 10 26.48035 02 50 13.74 +01 08 58.8          18.7 VqEU085G96
     K16U36Q KC2016 10 26.98793 03 04 06.59 +02 08 49.0          18.4 RoEU085461
     K16U36Q KC2016 10 26.98994 03 04 08.66 +02 08 59.9          18.4 RoEU085461
     K16U36Q KC2016 10 26.99317 03 04 11.97 +02 09 18.3          18.6 RoEU085461
     K16U36Q  C2016 10 27.27674 03 09 26.18 +02 34 46.1          19.1 RoEU085926
     K16U36Q  C2016 10 27.27844 03 09 27.45 +02 34 53.6          19.0 RoEU085926
     K16U36Q  C2016 10 27.28014 03 09 28.73 +02 35 00.9          19.0 RoEU085926
     K16U36Q  C2016 10 27.31092 03 09 50.88 +02 37 04.3          19.5 VqEU085I52
     K16U36Q  C2016 10 27.31473 03 09 53.57 +02 37 20.4          19.4 VqEU085I52
     K16U36Q  C2016 10 27.31514 03 09 53.86 +02 37 21.8          19.5 VqEU085I52
     K16U36Q  C2016 10 27.31556 03 09 54.16 +02 37 24.0          19.7 VqEU085I52
     K16U36Q  C2016 10 27.42750003 11 09.23 +02 44 34.9          20.1 VtEU085H01
     K16U36Q  C2016 10 27.43104703 11 11.65 +02 44 48.2          20.4 VtEU085H01
     K16U36Q  C2016 10 27.44107703 11 18.49 +02 45 25.5          20.1 VtEU085H01
     K16U36Q  C2016 10 27.44949903 11 24.25 +02 45 56.4          19.9 VtEU085H01
 
Observer details:
461 University of Szeged, Piszkesteto Stn. (Konkoly).  Observer K. Sarneczky.
    0.60-m Schmidt + CCD.
926 Tenagra II Observatory.  Observers M. Schwartz, P. R. Holvorcem.  Measurer
    M. Schwartz.  0.81-m f/7 Ritchey-Chretien + CCD.
G96 Mt. Lemmon Survey.  Observer G. J. Leonard.  Measurers E. J. Christensen,
    D. C. Fuls, A. R. Gibbs, A. D. Grauer, J. A. Johnson, R. A. Kowalski,
    S. M. Larson, G. J. Leonard, R. G. Matheny, R. L. Seaman, F. C. Shelly.
    1.5-m reflector + 10K CCD.
H01 Magdalena Ridge Observatory, Socorro.  Observers W. H. Ryan, E. V. Ryan.
    Measurer W. H. Ryan.  2.4-m f/8.9 reflector + CCD.
I52 Steward Observatory, Mt. Lemmon Station.  Observer R. A. Kowalski.
    Measurers E. J. Christensen, D. C. Fuls, A. R. Gibbs, A. D. Grauer,
    J. A. Johnson, R. A. Kowalski, S. M. Larson, G. J. Leonard, R. G. Matheny,
    R. L. Seaman, F. C. Shelly.  1.0-m reflector + CCD.
 
Orbital elements:
2016 UQ36                                                Earth MOID = 0.0001 AU
Epoch 2016 July 31.0 TT = JDT 2457600.5                 MPC
M 339.20852              (2000.0)            P               Q
n   0.41782916     Peri.  131.62033     +0.95546515     +0.29198049
a   1.7720265      Node   211.47308     -0.28923353     +0.89774708
e   0.5015414      Incl.    4.70465     -0.05856883     +0.32984478
P   2.36           H   27.6           G   0.15           U   6
Residuals in seconds of arc
161026 G96  0.1+  0.0     161026 G96  0.2+  0.3+    161027 I52  0.2+  0.0
161026 G96  0.9+  0.2-    161026 G96  0.2-  0.1+    161027 I52  0.1-  0.1+
161026 G96  0.4+  0.2+    161026 G96  0.2-  0.0     161027 I52  0.1-  0.3-
161026 G96  0.0   0.1-    161026 461  0.0   0.3+    161027 I52  0.0   0.2+
161026 I52  0.1+  0.4+    161026 461  0.1+  0.1-    161027 H01  0.0   0.1-
161026 I52  0.4-  0.3-    161026 461  0.3+  0.2+    161027 H01  0.1+  0.1-
161026 I52  0.0   0.0     161027 926  0.2-  0.1+    161027 H01  0.1+  0.1-
161026 I52  0.4-  0.1-    161027 926  0.1-  0.2+    161027 H01  0.1+  0.2-
161026 G96  0.3-  0.2-    161027 926  0.3+  0.1+

Ephemeris:
2016 UQ36                a,e,i = 1.77, 0.50, 5                   q = 0.8833
Date    TT    R. A. (2000) Decl.     Delta      r     Elong.  Phase     V
2016 09 27    15 32 21.3 -05 37 13   0.1913  0.8897    49.4   121.2    28.7
...
2016 10 12    15 47 36.0 -05 44 38   0.08682 0.9324    39.3   137.4    28.7
...
2016 10 20    16 01 08.7 -06 25 48   0.03295 0.9690    35.2   143.6    27.5
...
2016 10 26    02 27 41.7 -00 28 54   0.0076031.0015   165.6    14.3    17.8
2016 10 27    03 04 22.5 +02 17 18   0.01404 1.0072   162.2    17.6    19.3
2016 10 28    03 17 49.8 +03 18 02   0.02062 1.0130   160.6    19.0    20.2
...
2016 11 03    03 35 56.6 +04 46 36   0.06079 1.0498   161.5    17.4    22.5
...
2016 11 11    03 38 59.5 +05 23 22   0.1163  1.1029   165.4    13.0    23.9
...
2016 11 26    03 39 14.9 +06 34 06   0.2309  1.2106   164.1    12.9    25.6

A. U. Tomatic                (C) Copyright 2016 MPC           M.P.E.C. 2016-U85




More information about the Iaude mailing list